SUOMI NPP
Last updated on Sun Jun 21 2026 00:02:46 GMT+0000 (Coordinated Universal Time)
1 37849U 11061A 26171.44192975 .00000061 00000+0 50150-4 0 9999
2 37849 98.7953 112.2958 0001348 359.0198 1.0975 14.19517985758904
Next 0 passes for location: London (51.5072 / 0.1276)
No passes found over London.